カタログに戻る

STARLINK-33781

運用中通信VLEO
NORAD 63826·PAYLOAD·🇺🇸 United States

打ち上げ May 4, 2025 から Cape Canaveral Space Force Station

Loading…

次のパス (今後24時間)

TLE

最新Source: CelesTrak SupGP

元期: Sep 14, 2026, 22:57 UTC

1 63826C 25092Y   26257.95673611 -.00029883  00000+0 -10823-2 0  2577
2 63826  43.0011 183.9692 0001324 266.7826 215.9634 15.27596026    15

AllMySatでSTARLINK-33781をリアルタイム追跡

Download on the App Store